Wetterdaten: Woche 15.03.10 - 21.03.10 (KW11)
Datum Zeit Temperatur Luftfeuchte Luftdruck Niederschlag Windrichtung Wind
15.03.2010 00:00 0,8 C 88 % 1024,5 hPa 0,0 l/m W-SW 14,8 km/h (3 Bft)
15.03.2010 01:00 0,8 C 89 % 1024,4 hPa 0,2 l/m W 20,2 km/h (4 Bft)
15.03.2010 02:00 0,6 C 90 % 1024,3 hPa 0,0 l/m W-SW 16,2 km/h (3 Bft)
15.03.2010 03:00 0,6 C 91 % 1023,9 hPa 0,0 l/m W-SW 17,6 km/h (3 Bft)
15.03.2010 04:00 0,5 C 90 % 1024,1 hPa 0,0 l/m SW 14,1 km/h (3 Bft)
15.03.2010 05:00 0,4 C 92 % 1024,1 hPa 0,2 l/m W-SW 15,3 km/h (3 Bft)
15.03.2010 06:00 0,5 C 92 % 1024,4 hPa 0,0 l/m W-SW 11,8 km/h (2 Bft)
15.03.2010 07:00 0,8 C 91 % 1024,9 hPa 0,0 l/m W-SW 10,3 km/h (2 Bft)
15.03.2010 08:00 1,3 C 90 % 1025,3 hPa 0,0 l/m W-SW 10,9 km/h (2 Bft)
15.03.2010 09:00 2,0 C 88 % 1025,5 hPa 0,0 l/m W-SW 13,8 km/h (3 Bft)
15.03.2010 10:00 2,4 C 88 % 1025,6 hPa 0,0 l/m W 13,2 km/h (3 Bft)
15.03.2010 11:00 3,4 C 87 % 1025,8 hPa 0,0 l/m W-SW 13,6 km/h (3 Bft)
15.03.2010 12:00 4,2 C 83 % 1025,9 hPa 0,0 l/m W 16,1 km/h (3 Bft)
15.03.2010 13:00 4,7 C 79 % 1025,5 hPa 0,0 l/m W-SW 12,6 km/h (3 Bft)
15.03.2010 14:00 5,6 C 75 % 1025,1 hPa 0,0 l/m W-SW 13,7 km/h (3 Bft)
15.03.2010 15:00 5,8 C 73 % 1024,8 hPa 0,0 l/m W-SW 13,0 km/h (3 Bft)
15.03.2010 16:00 5,1 C 75 % 1024,6 hPa 0,4 l/m W 11,7 km/h (2 Bft)
15.03.2010 17:00 3,6 C 86 % 1024,4 hPa 0,2 l/m SW 10,4 km/h (2 Bft)
15.03.2010 18:00 2,8 C 88 % 1024,3 hPa 0,0 l/m W-SW 12,6 km/h (3 Bft)
15.03.2010 19:00 2,4 C 90 % 1024,4 hPa 0,0 l/m W-SW 12,9 km/h (3 Bft)
15.03.2010 20:00 2,1 C 91 % 1024,3 hPa 0,0 l/m W-SW 16,9 km/h (3 Bft)
15.03.2010 21:00 2,2 C 90 % 1024,1 hPa 0,0 l/m SW 14,9 km/h (3 Bft)
15.03.2010 22:00 2,3 C 89 % 1024,1 hPa 0,0 l/m W-SW 15,4 km/h (3 Bft)
15.03.2010 23:00 2,6 C 89 % 1023,6 hPa 0,0 l/m W-SW 21,8 km/h (4 Bft)
16.03.2010 00:00 2,5 C 90 % 1023,2 hPa 0,0 l/m W-SW 26,6 km/h (4 Bft)
16.03.2010 01:00 2,3 C 91 % 1023,1 hPa 0,0 l/m W-SW 27,1 km/h (4 Bft)
16.03.2010 02:00 2,0 C 92 % 1022,8 hPa 0,0 l/m W-SW 23,8 km/h (4 Bft)
16.03.2010 03:00 1,9 C 93 % 1022,6 hPa 0,4 l/m W-SW 23,5 km/h (4 Bft)
16.03.2010 04:00 1,7 C 94 % 1022,4 hPa 0,4 l/m W-SW 19,2 km/h (3 Bft)
16.03.2010 05:00 1,7 C 95 % 1022,5 hPa 0,4 l/m W-SW 19,4 km/h (3 Bft)
16.03.2010 06:00 1,7 C 95 % 1022,9 hPa 0,0 l/m W-SW 16,9 km/h (3 Bft)
16.03.2010 07:00 1,8 C 95 % 1023,3 hPa 0,2 l/m W-SW 17,0 km/h (3 Bft)
16.03.2010 08:00 1,9 C 95 % 1024,2 hPa 0,6 l/m W 15,6 km/h (3 Bft)
16.03.2010 09:00 2,5 C 95 % 1025,0 hPa 0,0 l/m W 13,7 km/h (3 Bft)
16.03.2010 10:00 3,5 C 93 % 1025,5 hPa 0,0 l/m W 12,9 km/h (3 Bft)
16.03.2010 11:00 4,1 C 90 % 1025,9 hPa 0,0 l/m W-NW 12,4 km/h (3 Bft)
16.03.2010 12:00 4,7 C 87 % 1026,4 hPa 0,0 l/m W 10,6 km/h (2 Bft)
16.03.2010 13:00 5,0 C 86 % 1026,6 hPa 0,0 l/m W-NW 11,9 km/h (2 Bft)
16.03.2010 14:00 5,8 C 80 % 1026,9 hPa 0,0 l/m W 9,8 km/h (2 Bft)
16.03.2010 15:00 5,6 C 80 % 1027,3 hPa 0,0 l/m W-SW 8,7 km/h (2 Bft)
16.03.2010 16:00 5,6 C 80 % 1027,2 hPa 0,0 l/m W 7,8 km/h (2 Bft)
16.03.2010 17:00 5,7 C 78 % 1027,5 hPa 0,0 l/m SW 6,0 km/h (2 Bft)
16.03.2010 18:00 4,9 C 86 % 1027,7 hPa 0,0 l/m SW 6,3 km/h (2 Bft)
16.03.2010 19:00 3,6 C 88 % 1028,2 hPa 0,0 l/m SW 6,1 km/h (2 Bft)
16.03.2010 20:00 3,1 C 90 % 1028,5 hPa 0,0 l/m S-SW 3,3 km/h (1 Bft)
16.03.2010 21:00 2,7 C 92 % 1028,6 hPa 0,0 l/m S 4,7 km/h (1 Bft)
16.03.2010 22:00 2,1 C 92 % 1028,8 hPa 0,0 l/m SW 3,9 km/h (1 Bft)
16.03.2010 23:00 1,2 C 92 % 1028,9 hPa 0,0 l/m N 0,4 km/h (0 Bft)
17.03.2010 00:00 -0,1 C 92 % 1029,0 hPa 0,0 l/m N 0,4 km/h (0 Bft)
17.03.2010 01:00 -0,7 C 94 % 1029,1 hPa 0,0 l/m N 0,1 km/h (0 Bft)
17.03.2010 02:00 -1,3 C 94 % 1028,9 hPa 0,0 l/m N 0,3 km/h (0 Bft)
17.03.2010 03:00 -2,0 C 95 % 1028,7 hPa 0,0 l/m N 0,3 km/h (0 Bft)
17.03.2010 04:00 -2,5 C 95 % 1028,5 hPa 0,0 l/m N 0,0 km/h (0 Bft)
17.03.2010 05:00 -3,1 C 95 % 1028,3 hPa 0,0 l/m N 0,0 km/h (0 Bft)
17.03.2010 06:00 -3,5 C 95 % 1028,5 hPa 0,0 l/m N 0,0 km/h (0 Bft)
17.03.2010 07:00 -3,1 C 96 % 1029,0 hPa 0,0 l/m N 0,5 km/h (0 Bft)
17.03.2010 08:00 -1,3 C 97 % 1029,4 hPa 0,2 l/m SW 3,5 km/h (1 Bft)
17.03.2010 09:00 1,7 C 90 % 1029,7 hPa 0,0 l/m S-SW 9,9 km/h (2 Bft)
17.03.2010 10:00 3,7 C 84 % 1029,5 hPa 0,0 l/m S-SW 12,8 km/h (3 Bft)
17.03.2010 11:00 5,8 C 79 % 1029,1 hPa 0,0 l/m SW 14,5 km/h (3 Bft)
17.03.2010 12:00 7,5 C 64 % 1028,7 hPa 0,0 l/m SW 20,5 km/h (4 Bft)
17.03.2010 13:00 8,5 C 56 % 1028,1 hPa 0,0 l/m S-SW 22,6 km/h (4 Bft)
17.03.2010 14:00 9,4 C 53 % 1027,4 hPa 0,0 l/m W-SW 18,5 km/h (3 Bft)
17.03.2010 15:00 9,2 C 55 % 1027,4 hPa 0,0 l/m W-SW 18,5 km/h (3 Bft)
17.03.2010 16:00 9,5 C 55 % 1027,3 hPa 0,0 l/m W-SW 16,9 km/h (3 Bft)
17.03.2010 17:00 8,6 C 57 % 1027,2 hPa 0,0 l/m SW 9,9 km/h (2 Bft)
17.03.2010 18:00 7,3 C 62 % 1027,2 hPa 0,0 l/m SW 7,8 km/h (2 Bft)
17.03.2010 19:00 5,8 C 71 % 1027,3 hPa 0,0 l/m S-SW 5,5 km/h (1 Bft)
17.03.2010 20:00 4,0 C 78 % 1027,1 hPa 0,0 l/m N 2,7 km/h (1 Bft)
17.03.2010 21:00 2,8 C 83 % 1027,1 hPa 0,0 l/m S-SO 2,1 km/h (1 Bft)
17.03.2010 22:00 2,2 C 85 % 1027,2 hPa 0,0 l/m N 1,1 km/h (0 Bft)
17.03.2010 23:00 1,8 C 87 % 1027,2 hPa 0,0 l/m N 0,5 km/h (0 Bft)
18.03.2010 00:00 1,6 C 88 % 1027,3 hPa 0,0 l/m N 0,0 km/h (0 Bft)
18.03.2010 01:00 1,2 C 88 % 1027,6 hPa 0,0 l/m N 0,0 km/h (0 Bft)
18.03.2010 02:00 0,8 C 89 % 1027,5 hPa 0,0 l/m N 0,0 km/h (0 Bft)
18.03.2010 03:00 0,2 C 91 % 1027,1 hPa 0,0 l/m N 0,0 km/h (0 Bft)
18.03.2010 04:00 0,1 C 91 % 1026,9 hPa 0,0 l/m N 0,5 km/h (0 Bft)
18.03.2010 05:00 -0,0 C 90 % 1026,9 hPa 0,0 l/m N 0,0 km/h (0 Bft)
18.03.2010 06:00 -0,5 C 91 % 1026,9 hPa 0,0 l/m N 0,0 km/h (0 Bft)
18.03.2010 07:00 0,4 C 89 % 1027,0 hPa 0,0 l/m N 0,7 km/h (0 Bft)
18.03.2010 08:00 3,5 C 74 % 1027,1 hPa 0,0 l/m S-SO 2,4 km/h (1 Bft)
18.03.2010 09:00 7,2 C 62 % 1027,0 hPa 0,0 l/m S-SW 9,3 km/h (2 Bft)
18.03.2010 10:00 10,4 C 50 % 1026,7 hPa 0,0 l/m S-SW 15,3 km/h (3 Bft)
18.03.2010 11:00 12,7 C 47 % 1026,2 hPa 0,0 l/m S-SW 13,0 km/h (3 Bft)
18.03.2010 12:00 14,1 C 39 % 1025,7 hPa 0,0 l/m W-SW 18,0 km/h (3 Bft)
18.03.2010 13:00 14,8 C 33 % 1024,7 hPa 0,0 l/m W-SW 15,2 km/h (3 Bft)
18.03.2010 14:00 15,1 C 29 % 1023,9 hPa 0,0 l/m SW 14,9 km/h (3 Bft)
18.03.2010 15:00 15,2 C 29 % 1023,3 hPa 0,0 l/m W-SW 13,2 km/h (3 Bft)
18.03.2010 16:00 14,3 C 28 % 1022,8 hPa 0,0 l/m W-SW 10,1 km/h (2 Bft)
18.03.2010 17:00 13,3 C 28 % 1022,2 hPa 0,0 l/m W-SW 6,3 km/h (2 Bft)
18.03.2010 18:00 10,7 C 40 % 1021,9 hPa 0,0 l/m N 0,5 km/h (0 Bft)
18.03.2010 19:00 8,1 C 50 % 1021,8 hPa 0,0 l/m N 0,0 km/h (0 Bft)
18.03.2010 20:00 6,6 C 54 % 1021,7 hPa 0,0 l/m N 0,0 km/h (0 Bft)
18.03.2010 21:00 5,5 C 61 % 1021,9 hPa 0,0 l/m N 0,5 km/h (0 Bft)
18.03.2010 22:00 4,1 C 71 % 1022,0 hPa 0,0 l/m N 0,1 km/h (0 Bft)
18.03.2010 23:00 3,2 C 73 % 1021,8 hPa 0,0 l/m N 1,3 km/h (1 Bft)
19.03.2010 00:00 2,6 C 75 % 1021,9 hPa 0,0 l/m S-SW 1,5 km/h (1 Bft)
19.03.2010 01:00 2,6 C 75 % 1022,2 hPa 0,0 l/m S-SW 0,9 km/h (0 Bft)
19.03.2010 02:00 3,5 C 72 % 1022,2 hPa 0,0 l/m SW 9,9 km/h (2 Bft)
19.03.2010 03:00 6,0 C 61 % 1022,0 hPa 0,0 l/m SW 12,4 km/h (3 Bft)
19.03.2010 04:00 6,1 C 60 % 1022,3 hPa 0,0 l/m O 10,9 km/h (2 Bft)
19.03.2010 05:00 5,0 C 65 % 1022,8 hPa 0,0 l/m S 6,4 km/h (2 Bft)
19.03.2010 06:00 5,5 C 64 % 1023,2 hPa 0,0 l/m SO 6,3 km/h (2 Bft)
19.03.2010 07:00 6,3 C 64 % 1023,5 hPa 0,0 l/m SO 4,7 km/h (1 Bft)
19.03.2010 08:00 7,9 C 61 % 1023,8 hPa 0,0 l/m S 8,2 km/h (2 Bft)
19.03.2010 09:00 10,2 C 55 % 1023,8 hPa 0,0 l/m S-SW 13,4 km/h (3 Bft)
19.03.2010 10:00 12,5 C 47 % 1023,6 hPa 0,0 l/m W-SW 22,0 km/h (4 Bft)
19.03.2010 11:00 13,7 C 43 % 1023,0 hPa 0,0 l/m W-SW 21,8 km/h (4 Bft)
19.03.2010 12:00 15,0 C 38 % 1022,2 hPa 0,0 l/m SW 22,4 km/h (4 Bft)
19.03.2010 13:00 15,9 C 36 % 1021,3 hPa 0,0 l/m W-SW 20,8 km/h (4 Bft)
19.03.2010 14:00 16,6 C 33 % 1020,6 hPa 0,0 l/m W 22,4 km/h (4 Bft)
19.03.2010 15:00 16,7 C 32 % 1019,7 hPa 0,0 l/m SW 19,7 km/h (3 Bft)
19.03.2010 16:00 16,5 C 32 % 1018,9 hPa 0,0 l/m W-SW 17,0 km/h (3 Bft)
19.03.2010 17:00 15,5 C 35 % 1018,7 hPa 0,0 l/m SW 10,7 km/h (2 Bft)
19.03.2010 18:00 12,9 C 42 % 1018,7 hPa 0,0 l/m SW 4,9 km/h (1 Bft)
19.03.2010 19:00 9,6 C 56 % 1018,7 hPa 0,0 l/m W 0,7 km/h (0 Bft)
19.03.2010 20:00 7,9 C 63 % 1018,6 hPa 0,0 l/m S 0,8 km/h (0 Bft)
19.03.2010 21:00 6,7 C 69 % 1018,4 hPa 0,0 l/m N 0,4 km/h (0 Bft)
19.03.2010 22:00 5,4 C 75 % 1018,0 hPa 0,0 l/m N 0,0 km/h (0 Bft)
19.03.2010 23:00 4,7 C 77 % 1017,6 hPa 0,0 l/m N 0,8 km/h (0 Bft)
20.03.2010 00:00 4,9 C 77 % 1017,3 hPa 0,0 l/m N 0,1 km/h (0 Bft)
20.03.2010 01:00 4,8 C 75 % 1017,1 hPa 0,0 l/m S 1,7 km/h (1 Bft)
20.03.2010 02:00 4,4 C 77 % 1016,8 hPa 0,0 l/m N 1,3 km/h (1 Bft)
20.03.2010 03:00 4,6 C 77 % 1016,5 hPa 0,0 l/m N 1,1 km/h (0 Bft)
20.03.2010 04:00 5,6 C 73 % 1016,4 hPa 0,0 l/m S-SW 3,6 km/h (1 Bft)
20.03.2010 05:00 8,6 C 58 % 1016,4 hPa 0,0 l/m SW 10,9 km/h (2 Bft)
20.03.2010 06:00 8,2 C 63 % 1016,5 hPa 0,0 l/m SW 8,8 km/h (2 Bft)
20.03.2010 07:00 8,2 C 69 % 1016,7 hPa 0,0 l/m SW 11,1 km/h (2 Bft)
20.03.2010 08:00 10,3 C 74 % 1017,0 hPa 0,0 l/m SW 17,7 km/h (3 Bft)
20.03.2010 09:00 11,4 C 75 % 1017,0 hPa 0,0 l/m W-SW 17,2 km/h (3 Bft)
20.03.2010 10:00 13,8 C 68 % 1016,7 hPa 0,0 l/m W-SW 24,7 km/h (4 Bft)
20.03.2010 11:00 14,9 C 63 % 1016,3 hPa 0,0 l/m SW 25,9 km/h (4 Bft)
20.03.2010 12:00 14,9 C 62 % 1015,5 hPa 0,0 l/m W-SW 22,9 km/h (4 Bft)
20.03.2010 13:00 15,4 C 60 % 1014,9 hPa 0,0 l/m W-SW 20,0 km/h (4 Bft)
20.03.2010 14:00 15,5 C 59 % 1014,6 hPa 0,0 l/m W-SW 17,2 km/h (3 Bft)
20.03.2010 15:00 15,6 C 59 % 1014,3 hPa 0,0 l/m W-SW 18,2 km/h (3 Bft)
20.03.2010 16:00 15,0 C 61 % 1014,3 hPa 0,0 l/m W-SW 21,1 km/h (4 Bft)
20.03.2010 17:00 14,4 C 64 % 1014,7 hPa 0,0 l/m W 23,1 km/h (4 Bft)
20.03.2010 18:00 12,8 C 73 % 1015,1 hPa 0,0 l/m SW 21,3 km/h (4 Bft)
20.03.2010 19:00 11,0 C 83 % 1015,4 hPa 0,2 l/m SW 15,0 km/h (3 Bft)
20.03.2010 20:00 11,1 C 88 % 1015,4 hPa 0,2 l/m SW 21,2 km/h (4 Bft)
20.03.2010 21:00 10,9 C 90 % 1015,1 hPa 0,2 l/m W-SW 16,4 km/h (3 Bft)
20.03.2010 22:00 10,5 C 91 % 1015,1 hPa 0,0 l/m SW 15,2 km/h (3 Bft)
20.03.2010 23:00 10,5 C 90 % 1015,0 hPa 0,0 l/m SW 12,5 km/h (3 Bft)
21.03.2010 00:00 10,8 C 86 % 1014,6 hPa 0,2 l/m SW 9,9 km/h (2 Bft)
21.03.2010 01:00 10,4 C 89 % 1014,4 hPa 0,0 l/m W-SW 10,6 km/h (2 Bft)
21.03.2010 02:00 9,9 C 90 % 1013,6 hPa 0,0 l/m SW 9,1 km/h (2 Bft)
21.03.2010 03:00 10,3 C 87 % 1012,8 hPa 0,0 l/m SW 10,2 km/h (2 Bft)
21.03.2010 04:00 10,2 C 87 % 1012,4 hPa 0,0 l/m SW 11,7 km/h (2 Bft)
21.03.2010 05:00 10,3 C 90 % 1013,2 hPa 3,0 l/m SW 20,2 km/h (4 Bft)
21.03.2010 06:00 9,7 C 94 % 1013,7 hPa 0,8 l/m W-SW 13,7 km/h (3 Bft)
21.03.2010 07:00 9,2 C 97 % 1014,3 hPa 1,4 l/m SW 16,0 km/h (3 Bft)
21.03.2010 08:00 9,3 C 97 % 1014,5 hPa 0,2 l/m S-SW 18,4 km/h (3 Bft)
21.03.2010 09:00 9,3 C 96 % 1015,3 hPa 0,0 l/m SW 18,6 km/h (3 Bft)
21.03.2010 10:00 9,6 C 97 % 1015,8 hPa 0,0 l/m S-SW 17,8 km/h (3 Bft)
21.03.2010 11:00 9,9 C 97 % 1016,1 hPa 0,0 l/m W-SW 15,7 km/h (3 Bft)
21.03.2010 12:00 11,1 C 94 % 1016,3 hPa 0,2 l/m W-SW 23,3 km/h (4 Bft)
21.03.2010 13:00 12,3 C 89 % 1016,4 hPa 0,0 l/m SW 24,3 km/h (4 Bft)
21.03.2010 14:00 12,2 C 89 % 1016,6 hPa 0,0 l/m SW 20,0 km/h (4 Bft)
21.03.2010 15:00 11,6 C 92 % 1016,6 hPa 1,2 l/m SW 12,3 km/h (3 Bft)
21.03.2010 16:00 12,4 C 89 % 1016,7 hPa 0,0 l/m W 15,4 km/h (3 Bft)
21.03.2010 17:00 12,1 C 89 % 1016,9 hPa 0,2 l/m W-SW 14,2 km/h (3 Bft)
21.03.2010 18:00 11,4 C 91 % 1017,6 hPa 0,0 l/m W-SW 10,8 km/h (2 Bft)
21.03.2010 19:00 10,7 C 92 % 1018,7 hPa 0,0 l/m W-SW 9,1 km/h (2 Bft)
21.03.2010 20:00 9,4 C 86 % 1019,6 hPa 0,0 l/m N-NW 9,7 km/h (2 Bft)
21.03.2010 21:00 7,7 C 89 % 1020,4 hPa 0,0 l/m N-NW 6,9 km/h (2 Bft)
21.03.2010 22:00 6,0 C 93 % 1020,9 hPa 0,0 l/m W-NW 3,6 km/h (1 Bft)
21.03.2010 23:00 5,8 C 90 % 1021,2 hPa 0,0 l/m W-NW 5,2 km/h (1 Bft)
Min-Datum _ 17.03.10 18.03.10 21.03.10 - - 16.03.10
_ Min-Zeit 07:05 14:55 04:30 - - 22:15
Minimum _ -3,7 C 26 % 1012,3 hPa - - 0,0 km/h (0 Bft)
Max-Datum _ 19.03.10 21.03.10 17.03.10 21.03.10 - 16.03.10
_ Max-Zeit 15:45 11:30 09:15 05:20 - 01:05
Maximum _ 16,9 C 98 % 1029,7 hPa 3,0 l/m - 38,6 km/h
W-SW (5 Bft)
Durchschnitt _ 6,5 C 77 % 1022,4 hPa #11,0 l/m W-SW 11,0 km/h (2 Bft)